Regional Weather Roundup
Issued by NWS

Home | Current Version | Previous Version | Graphics & Text | Print | Product List | Glossary On
Versions: 1 2 3 4 5 6 7 8 9 10 11 12 13 14 15 16 17 18 19 20 21 22 23 24 25 26 27 28 29 30 31 32 33 34 35 36 37 38 39 40 41 42 43 44 45 46 47 48 49 50
000
ASUS45 KSLC 171010
RWRUT

UTAH REGIONAL WEATHER ROUNDUP
NATIONAL WEATHER SERVICE SALT LAKE CITY UT
300 AM MST WED DEC 17 2014

UTZ001>011-023>025-171100-

NORTHERN UTAH

CITY           SKY/WX    TMP DP  RH WIND       PRES   REMARKS
BRIGHAM CITY   CLEAR     30  27  90 SW3       30.00R
HILL AFB       CLOUDY    32  30  90 CALM      29.98R
LOGAN          PTCLDY    29  26  89 CALM      29.99F
OGDEN          PTCLDY    31  28  89 CALM      29.98S
PROVO AIRPORT  MOCLDY    34  25  69 CALM      29.99S
SALT LAKE CITY CLOUDY    33  30  88 CALM      29.99S
VERNAL         FOG       23  22  96 W3        30.07F VSB 3/4
WENDOVER       PTCLDY    21  18  86 W3        30.00R
HEBER CITY     CLOUDY    32  23  69 CALM      29.98S
WEST JORDAN    CLOUDY    30  30 100 CALM      29.99S

$$

UTZ012>022-026-027-171100-

SOUTHERN/CENTRAL UTAH

CITY           SKY/WX    TMP DP  RH WIND       PRES   REMARKS
BLANDING       CLOUDY    33  30  88 NW3       30.07S
BRYCE CANYON   LGT SNOW  25  22  88 CALM      29.99F FOG
CEDAR CITY     CLOUDY    38  23  55 SE8       29.95F WCI  32
DELTA          CLOUDY    31  26  83 E3        29.97S
MILFORD        CLOUDY    31  26  82 S6        29.97R WCI  25
MOAB/CYNLANDS  CLOUDY    34  31  88 NE6       30.02S WCI  29
PRICE          MOCLDY    25  18  74 NE7       30.01S WCI  17
ST GEORGE      CLOUDY    43  32  65 SE6       30.01R
KANAB            N/A     36  32  87 NW6       30.05S WCI  31

$$

REGIONAL REPORTS     COLORADO/ARIZONA

CITY           SKY/WX    TMP DP  RH WIND       PRES   REMARKS
CRAIG, CO      CLOUDY    22  19  89 CALM      30.03F
GRAND JUNCTION CLOUDY    32  28  85 CALM      30.02F
RIFLE          CLOUDY    28  25  88 SE3       30.05F
MONTROSE       MOCLDY    30  26  85 CALM      30.05S
CORTEZ         MOCLDY    31  26  82 CALM      29.99F
PAGE, AZ       CLOUDY    41  30  65 W6        30.00F
GRAND CANYON   LGT SNOW  32  30  92 SW9       30.01R FOG     WCI  24
KINGMAN        CLOUDY    41  37  86 E7        29.99F
FLAGSTAFF      LGT SNOW  30  27  88 CALM      29.99F FOG

$$

REGIONAL REPORTS    NEVADA/IDAHO/WYOMING

CITY           SKY/WX    TMP DP  RH WIND       PRES   REMARKS
LAS VEGAS, NV  CLOUDY    48  41  76 S5        29.95R
ELY            PTCLDY    18  16  92 S5        29.96F WCI  11
ELKO           PTCLDY    22  19  89 NE7       29.96S WCI  13
POCATELLO, ID  FOG       26  26 100 E5        30.00S VSB 1/4 WCI  20
BURLEY         CLEAR     27  25  92 CALM      29.98S
EVANSTON, WY   PTCLDY    26  18  71 CALM      29.97S
ROCK SPRINGS   MOCLDY    16  12  84 CALM      30.00S

$$



USA.gov is the U.S. government's official web portal to all federal, state and local government web resources and services.